Location: Dyersburg
(36.0438°N, 89.3789°W)
Time: 21:29:28
(UTC+00:00)

Vanguard 1 - All Passes

Search period start: 17 February 2020 00:00
Search period end: 27 February 2020 00:00
Orbit: 650 x 3833 km, 34.2° (Epoch: 16 February)

Date Brightness Start Highest point End Pass type
(mag) Time Alt. Az. Time Alt. Az. Time Alt. Az.
17 Feb - 10:56:25 10° SSE 11:05:27 14° SE 11:13:40 10° ESE visible
17 Feb - 13:10:32 10° SSW 13:30:06 39° SSE 13:43:25 10° E daylight
17 Feb - 15:35:01 10° WSW 15:54:21 68° SSE 16:04:53 10° E daylight
17 Feb - 18:02:51 10° W 18:17:13 82° S 18:24:38 10° E daylight
17 Feb - 20:29:19 10° W 20:38:04 48° SSW 20:43:19 10° SE daylight
18 Feb - 11:12:26 10° S 11:26:41 20° SE 11:38:51 10° E visible
18 Feb - 13:30:41 10° SW 13:51:24 48° SSE 14:04:53 10° E daylight
18 Feb - 15:56:30 10° WSW 16:15:38 75° SSE 16:25:51 10° E daylight
18 Feb - 18:24:35 10° W 18:38:19 79° S 18:45:29 10° ESE daylight
18 Feb - 20:50:55 10° W 20:58:43 36° SSW 21:03:40 10° SSE daylight
19 Feb - 11:30:31 10° S 11:47:52 27° SE 12:02:02 10° E visible
19 Feb - 13:51:16 10° SW 14:12:43 56° SSE 14:26:08 10° E daylight
19 Feb - 16:18:11 10° WSW 16:36:55 80° S 16:46:47 10° E daylight
19 Feb - 18:46:18 10° W 18:59:23 73° SSW 19:06:16 10° ESE daylight
19 Feb - 21:12:43 10° W 21:19:13 25° SW 21:23:42 10° SSE daylight
20 Feb - 11:49:35 10° SSW 12:09:03 35° SE 12:24:19 10° E visible
20 Feb - 14:12:13 10° SW 14:34:03 64° SSE 14:47:16 10° E daylight
20 Feb - 16:39:58 10° W 16:58:13 83° S 17:07:43 10° E daylight
20 Feb - 19:07:59 10° W 19:20:20 63° SSW 19:26:57 10° ESE daylight
20 Feb - 21:34:59 10° W 21:39:34 17° SW 21:43:08 10° S daylight
21 Feb - 09:54:59 10° SSE 10:05:42 15° SE 10:15:55 10° ESE visible
21 Feb - 12:09:17 10° SSW 12:30:15 43° SSE 12:46:06 10° E visible
21 Feb - 14:33:28 10° WSW 14:55:25 72° SSE 15:08:20 10° E daylight
21 Feb - 17:01:49 10° W 17:19:29 83° S 17:28:37 10° E daylight
21 Feb - 19:29:39 10° W 19:41:08 52° SSW 19:47:31 10° SE daylight
22 Feb - 10:11:35 10° S 10:26:43 22° SE 10:40:45 10° E visible
22 Feb - 12:29:28 10° SW 12:51:31 51° SSE 13:07:37 10° E daylight
22 Feb - 14:54:58 10° WSW 15:16:49 78° SSE 15:29:21 10° E daylight
22 Feb - 17:23:40 10° W 17:40:42 80° S 17:49:30 10° ESE daylight
22 Feb - 19:51:23 10° W 20:01:47 40° SW 20:07:51 10° SSE daylight
23 Feb - 10:29:52 10° S 10:47:42 29° SE 11:03:53 10° E visible
23 Feb - 12:50:03 10° SW 13:12:50 59° SSE 13:28:56 10° E daylight
23 Feb - 15:16:39 10° WSW 15:38:14 82° S 15:50:22 10° E daylight
23 Feb - 17:45:31 10° W 18:01:51 74° SSW 18:10:18 10° ESE daylight
23 Feb - 20:13:17 10° W 20:22:15 30° SW 20:27:54 10° SSE daylight
24 Feb - 10:49:02 10° SSW 11:08:43 37° SE 11:26:13 10° E visible
24 Feb - 13:10:59 10° SW 13:34:13 67° SSE 13:50:08 10° E daylight
24 Feb - 15:38:28 10° W 15:59:40 84° S 16:11:21 10° E daylight
24 Feb - 18:07:19 10° W 18:22:52 66° SSW 18:31:01 10° ESE daylight
24 Feb - 20:35:33 10° W 20:42:34 21° SW 20:47:28 10° S daylight
25 Feb - 08:54:54 10° SSE 09:05:44 16° SE 09:16:48 10° E visible
25 Feb - 11:08:47 10° SSW 11:29:49 45° SE 11:48:04 10° E visible
25 Feb - 13:32:11 10° WSW 13:55:40 74° SSE 14:11:17 10° E daylight
25 Feb - 16:00:22 10° W 16:21:04 84° S 16:32:19 10° E daylight
25 Feb - 18:29:07 10° W 18:43:43 56° SSW 18:51:34 10° SE daylight
25 Feb - 20:58:48 10° WSW 21:02:46 13° SW 21:06:01 10° SSW daylight
26 Feb - 09:11:45 10° S 09:26:29 23° SE 09:41:38 10° E visible
26 Feb - 11:28:59 10° SW 11:50:59 53° SSE 12:09:39 10° E visible
26 Feb - 13:53:38 10° WSW 14:17:11 79° SSE 14:32:24 10° E daylight
26 Feb - 16:22:16 10° W 16:42:24 81° S 16:53:15 10° ESE daylight
26 Feb - 18:50:57 10° W 19:04:24 45° SW 19:11:55 10° SE daylight
